Location: Boursonne
(49.2024°N, 3.0468°E)
Time: 00:00:45
(UTC+00:00)

Helios 1A Rocket - Pass Details

Date: 03 March 2021
Orbit: 563 x 585 km, 98.3° (Epoch: 20 April)

Event Time Altitude Azimuth Distance (km) Brightness Sun altitude
Rises 19:13:04 0° 181° (S) 2,767 6.3 -16.9°
Reaches altitude 10° 19:15:17 10° 188° (S) 1,871 5.5 -17.2°
Maximum altitude 19:19:09 43° 260° (W) 806 4.1 -17.9°
Drops below altitude 10° 19:23:02 10° 333° (NNW) 1,876 6.0 -18.5°
Sets 19:25:16 0° 340° (NNW) 2,776 6.9 -18.8°
